Hourly Weather Barneveld

Today, 25 September, Friday

Time Temperature Precipitation Wind Pressure Humidity
00:00 +12°C° 0.9 mm 4 mps 745 mmHg 94%
01:00 +11°C° 0.4 mm 4 mps 744 mmHg 92%
02:00 +11°C° 0.4 mm 4 mps 744 mmHg 90%
03:00 +9°C° 0.4 mm 5 mps 744 mmHg 88%
04:00 +9°C° 0 mm 5 mps 744 mmHg 89%
05:00 +8°C° 0 mm 5 mps 744 mmHg 89%
06:00 +7°C° 0 mm 5 mps 745 mmHg 89%
07:00 +8°C° 0 mm 5 mps 745 mmHg 84%
08:00 +9°C° 0 mm 6 mps 745 mmHg 78%
09:00 +10°C° 0 mm 6 mps 745 mmHg 73%
10:00 +11°C° 0 mm 6 mps 745 mmHg 68%
11:00 +13°C° 0 mm 6 mps 744 mmHg 64%
12:00 +14°C° 0 mm 5 mps 744 mmHg 59%
13:00 +14°C° 0.1 mm 6 mps 744 mmHg 61%
14:00 +12°C° 0.1 mm 7 mps 744 mmHg 64%
15:00 +12°C° 0.1 mm 8 mps 743 mmHg 66%
16:00 +11°C° 0.5 mm 7 mps 743 mmHg 73%
17:00 +10°C° 0.5 mm 6 mps 743 mmHg 80%
18:00 +9°C° 0.5 mm 6 mps 743 mmHg 87%
19:00 +9°C° 0 mm 5 mps 744 mmHg 87%
20:00 +10°C° 0 mm 4 mps 744 mmHg 87%
21:00 +10°C° 0 mm 4 mps 744 mmHg 88%
22:00 +10°C° 0.1 mm 4 mps 744 mmHg 89%
23:00 +10°C° 0.1 mm 4 mps 744 mmHg 90%

Tomorrow, 26 September, Saturday

Time Temperature Precipitation Wind Pressure Humidity
00:00 +10°C° 0.1 mm 4 mps 744 mmHg 91%
01:00 +8°C° 0.1 mm 4 mps 745 mmHg 92%
02:00 +8°C° 0.1 mm 4 mps 745 mmHg 92%
03:00 +8°C° 0.1 mm 4 mps 745 mmHg 92%
04:00 +7°C° 0 mm 4 mps 746 mmHg 93%
05:00 +7°C° 0 mm 3 mps 746 mmHg 94%
06:00 +7°C° 0 mm 2 mps 746 mmHg 94%
07:00 +9°C° 0 mm 2 mps 747 mmHg 88%
08:00 +11°C° 0 mm 1 mps 747 mmHg 81%
09:00 +13°C° 0 mm 1 mps 748 mmHg 75%
10:00 +14°C° 0 mm 2 mps 748 mmHg 70%
11:00 +16°C° 0 mm 2 mps 748 mmHg 66%
12:00 +17°C° 0 mm 3 mps 748 mmHg 61%
13:00 +15°C° 0.3 mm 4 mps 748 mmHg 68%
14:00 +15°C° 0.3 mm 5 mps 748 mmHg 75%
15:00 +14°C° 0.3 mm 6 mps 749 mmHg 83%
16:00 +14°C° 0.3 mm 5 mps 749 mmHg 84%
17:00 +13°C° 0.3 mm 5 mps 749 mmHg 86%
18:00 +13°C° 0.3 mm 5 mps 749 mmHg 88%
19:00 +13°C° 0.1 mm 6 mps 749 mmHg 89%
20:00 +13°C° 0.1 mm 6 mps 749 mmHg 89%
21:00 +12°C° 0.1 mm 7 mps 749 mmHg 90%
22:00 +12°C° 0.2 mm 7 mps 748 mmHg 90%
23:00 +12°C° 0.2 mm 7 mps 748 mmHg 91%

Day after tomorrow, 27 September, Sunday

Time Temperature Precipitation Wind Pressure Humidity
00:00 +12°C° 0.2 mm 8 mps 747 mmHg 92%
01:00 +14°C° 1.3 mm 7 mps 747 mmHg 93%
02:00 +14°C° 1.3 mm 7 mps 747 mmHg 94%
03:00 +14°C° 1.3 mm 7 mps 747 mmHg 94%
04:00 +14°C° 0.2 mm 6 mps 747 mmHg 95%
05:00 +15°C° 0.2 mm 5 mps 747 mmHg 96%
06:00 +15°C° 0.2 mm 4 mps 748 mmHg 96%
07:00 +15°C° 0.3 mm 4 mps 748 mmHg 93%
08:00 +15°C° 0.3 mm 5 mps 748 mmHg 90%
09:00 +15°C° 0.3 mm 5 mps 749 mmHg 86%
10:00 +16°C° 0 mm 5 mps 749 mmHg 83%
11:00 +17°C° 0 mm 4 mps 750 mmHg 80%
12:00 +17°C° 0 mm 4 mps 750 mmHg 77%
13:00 +17°C° 0 mm 4 mps 750 mmHg 78%
14:00 +17°C° 0 mm 3 mps 751 mmHg 79%
15:00 +17°C° 0 mm 3 mps 751 mmHg 80%
16:00 +17°C° 0 mm 2 mps 751 mmHg 81%
17:00 +16°C° 0 mm 2 mps 752 mmHg 82%
18:00 +15°C° 0 mm 1 mps 752 mmHg 83%
19:00 +15°C° 0 mm 1 mps 752 mmHg 85%
20:00 +15°C° 0 mm 2 mps 753 mmHg 87%
21:00 +16°C° 0 mm 2 mps 753 mmHg 89%
22:00 +16°C° 0 mm 2 mps 753 mmHg 91%
23:00 +16°C° 0 mm 3 mps 753 mmHg 93%

28 September, Monday

Time Temperature Precipitation Wind Pressure Humidity
00:00 +17°C° 0 mm 3 mps 753 mmHg 95%
01:00 +17°C° 0.1 mm 4 mps 753 mmHg 96%
02:00 +17°C° 0.1 mm 4 mps 753 mmHg 96%
03:00 +17°C° 0.1 mm 4 mps 753 mmHg 96%
04:00 +17°C° 0.1 mm 4 mps 753 mmHg 96%
05:00 +17°C° 0.1 mm 4 mps 754 mmHg 96%
06:00 +17°C° 0.1 mm 4 mps 754 mmHg 96%
07:00 +17°C° 0.1 mm 4 mps 754 mmHg 94%
08:00 +17°C° 0.1 mm 4 mps 754 mmHg 93%
09:00 +17°C° 0.1 mm 5 mps 754 mmHg 91%
10:00 +16°C° 0 mm 5 mps 755 mmHg 90%
11:00 +16°C° 0 mm 5 mps 755 mmHg 90%
12:00 +16°C° 0 mm 6 mps 755 mmHg 89%
13:00 +16°C° 0 mm 5 mps 756 mmHg 88%
14:00 +15°C° 0 mm 5 mps 756 mmHg 87%
15:00 +14°C° 0 mm 5 mps 756 mmHg 86%
16:00 +13°C° 0 mm 5 mps 756 mmHg 82%
17:00 +13°C° 0 mm 4 mps 757 mmHg 78%
18:00 +12°C° 0 mm 4 mps 757 mmHg 73%
19:00 +11°C° 0 mm 3 mps 757 mmHg 77%
20:00 +11°C° 0 mm 3 mps 758 mmHg 80%
21:00 +10°C° 0 mm 3 mps 758 mmHg 84%
22:00 +12°C° 0 mm 3 mps 758 mmHg 86%
23:00 +13°C° 0 mm 3 mps 758 mmHg 88%

29 September, Tuesday

Time Temperature Precipitation Wind Pressure Humidity
00:00 +14°C° 0 mm 3 mps 758 mmHg 90%
01:00 +14°C° 0 mm 3 mps 758 mmHg 91%
02:00 +14°C° 0 mm 3 mps 758 mmHg 93%
03:00 +14°C° 0 mm 3 mps 758 mmHg 95%
04:00 +14°C° 0 mm 3 mps 759 mmHg 95%
05:00 +13°C° 0 mm 3 mps 759 mmHg 96%
06:00 +13°C° 0 mm 3 mps 759 mmHg 97%
07:00 +13°C° 0 mm 3 mps 759 mmHg 95%
08:00 +14°C° 0 mm 3 mps 760 mmHg 93%
09:00 +16°C° 0 mm 3 mps 760 mmHg 90%
10:00 +16°C° 0.5 mm 2 mps 760 mmHg 91%
11:00 +16°C° 0.5 mm 2 mps 760 mmHg 92%
12:00 +16°C° 0.5 mm 2 mps 760 mmHg 92%
13:00 +16°C° 0.2 mm 2 mps 760 mmHg 90%
14:00 +16°C° 0.2 mm 2 mps 760 mmHg 88%
15:00 +18°C° 0.2 mm 1 mps 760 mmHg 86%
16:00 +16°C° 0.1 mm 2 mps 760 mmHg 88%
17:00 +15°C° 0.1 mm 2 mps 760 mmHg 90%
18:00 +14°C° 0.1 mm 2 mps 761 mmHg 92%
19:00 +13°C° 0 mm 2 mps 760 mmHg 92%
20:00 +13°C° 0 mm 1 mps 760 mmHg 92%
21:00 +12°C° 0 mm 1 mps 760 mmHg 92%
22:00 +12°C° 0 mm 1 mps 760 mmHg 92%
23:00 +11°C° 0 mm 0 mps 760 mmHg 91%

30 September, Wednesday

Time Temperature Precipitation Wind Pressure Humidity
00:00 +11°C° 0 mm 0 mps 760 mmHg 91%
01:00 +11°C° 0 mm 0 mps 759 mmHg 92%
02:00 +12°C° 0 mm 1 mps 759 mmHg 92%
03:00 +11°C° 0 mm 1 mps 759 mmHg 92%
04:00 +12°C° 0 mm 1 mps 758 mmHg 93%
05:00 +12°C° 0 mm 1 mps 758 mmHg 93%
06:00 +12°C° 0 mm 1 mps 758 mmHg 93%
07:00 +13°C° 0 mm 1 mps 758 mmHg 92%
08:00 +13°C° 0 mm 1 mps 757 mmHg 91%
09:00 +14°C° 0 mm 1 mps 757 mmHg 89%
10:00 +15°C° 0 mm 2 mps 757 mmHg 88%
11:00 +15°C° 0 mm 2 mps 757 mmHg 86%
12:00 +16°C° 0 mm 2 mps 756 mmHg 84%
13:00 +14°C° 0.4 mm 3 mps 756 mmHg 88%
14:00 +14°C° 0.4 mm 3 mps 755 mmHg 92%
15:00 +13°C° 0.4 mm 3 mps 755 mmHg 96%
16:00 +13°C° 0 mm 3 mps 754 mmHg 96%
17:00 +13°C° 0 mm 3 mps 754 mmHg 96%
18:00 +13°C° 0 mm 3 mps 754 mmHg 95%
19:00 +13°C° 0 mm 4 mps 754 mmHg 95%
20:00 +13°C° 0 mm 4 mps 753 mmHg 94%
21:00 +13°C° 0 mm 4 mps 753 mmHg 94%
22:00 +13°C° 0 mm 4 mps 752 mmHg 94%
23:00 +13°C° 0 mm 4 mps 752 mmHg 94%
Show more